,,PA_Meas_PMT16A,,PR_Meas_QMR101_102,,RH_Meas_QMH101,,SR_Meas_QMS101,,TA_Meas_QMH101,,GenWind,,GenWind,
time,status,PA,status,PR,status,RH,status,SR,status,TA,status,DirAvg,status,SpdAvg,
2014-08-27, 00:00:04,VALID,917.902,VALID,0,VALID,96.3447,VALID,0,VALID,19.4898,VALID,358,VALID,0,
2014-08-27, 00:01:04,VALID,917.884,VALID,0,VALID,96.3219,VALID,0,VALID,19.4703,VALID,358,VALID,0,
2014-08-27, 00:02:04,VALID,917.88,VALID,0,VALID,96.3142,VALID,0,VALID,19.4493,VALID,358,VALID,0,
2014-08-27, 00:03:04,VALID,917.902,VALID,0,VALID,96.3219,VALID,0,VALID,19.4493,VALID,358,VALID,0,
2014-08-27, 00:04:04,VALID,917.892,VALID,0,VALID,96.3371,VALID,0,VALID,19.4688,VALID,358,VALID,0,
2014-08-27, 00:05:04,VALID,917.883,VALID,0,VALID,96.3447,VALID,0,VALID,19.4688,VALID,358,VALID,0,
2014-08-27, 00:06:04,VALID,917.883,VALID,0,VALID,96.3371,VALID,0,VALID,19.5093,VALID,358,VALID,0,
2014-08-27, 00:07:04,VALID,917.864,VALID,0,VALID,96.3142,VALID,0,VALID,19.4898,VALID,358,VALID,0,
2014-08-27, 00:08:04,VALID,917.865,VALID,0,VALID,96.2914,VALID,0,VALID,19.5093,VALID,358,VALID,0,
2014-08-27, 00:09:04,VALID,917.852,VALID,0,VALID,96.3066,VALID,0,VALID,19.4898,VALID,358,VALID,0,
2014-08-27, 00:10:04,VALID,917.823,VALID,0,VALID,96.2609,VALID,0,VALID,19.4898,VALID,358,VALID,0,
2014-08-27, 00:11:04,VALID,917.817,VALID,0,VALID,96.238,VALID,0,VALID,19.4688,VALID,358,VALID,0,
2014-08-27, 00:12:04,VALID,917.805,VALID,0,VALID,96.2151,VALID,0,VALID,19.4688,VALID,355,VALID,0,
2014-08-27, 00:13:04,VALID,917.77,VALID,0,VALID,96.1618,VALID,0,VALID,19.4703,VALID,355,VALID,0,
2014-08-27, 00:14:04,VALID,917.756,VALID,0,VALID,96.1465,VALID,0,VALID,19.4898,VALID,340,VALID,0.184375,
2014-08-27, 00:15:04,VALID,917.724,VALID,0,VALID,96.1236,VALID,0,VALID,19.4898,VALID,360,VALID,0.458203,
2014-08-27, 00:16:04,VALID,917.709,VALID,0,VALID,96.0932,VALID,0,VALID,19.4898,VALID,357,VALID,0,
2014-08-27, 00:17:04,VALID,917.689,VALID,0,VALID,96.0474,VALID,0,VALID,19.4883,VALID,344,VALID,0.00195313,
2014-08-27, 00:18:04,VALID,917.696,VALID,0,VALID,96.0169,VALID,0,VALID,19.4883,VALID,352,VALID,0,
2014-08-27, 00:19:04,VALID,917.669,VALID,0,VALID,95.9788,VALID,0,VALID,19.5093,VALID,352,VALID,0,
2014-08-27, 00:20:04,VALID,917.674,VALID,0,VALID,95.9636,VALID,0,VALID,19.5078,VALID,351,VALID,0,
2014-08-27, 00:21:04,VALID,917.661,VALID,0,VALID,95.9407,VALID,0,VALID,19.5078,VALID,351,VALID,0,
2014-08-27, 00:22:04,VALID,917.656,VALID,0,VALID,95.9331,VALID,0,VALID,19.5078,VALID,352,VALID,0,
2014-08-27, 00:23:04,VALID,917.66,VALID,0,VALID,95.9559,VALID,0,VALID,19.5468,VALID,352,VALID,0,
2014-08-27, 00:24:04,VALID,917.659,VALID,0,VALID,95.9483,VALID,0,VALID,19.5858,VALID,352,VALID,0,
2014-08-27, 00:25:04,VALID,917.662,VALID,0,VALID,95.9254,VALID,0,VALID,19.6053,VALID,352,VALID,0,
2014-08-27, 00:26:04,VALID,917.682,VALID,0,VALID,95.9407,VALID,0,VALID,19.6053,VALID,352,VALID,0,
2014-08-27, 00:27:04,VALID,917.664,VALID,0,VALID,95.9407,VALID,0,VALID,19.6053,VALID,352,VALID,0,
2014-08-27, 00:28:04,VALID,917.65,VALID,0,VALID,95.9102,VALID,0,VALID,19.5663,VALID,352,VALID,0,
2014-08-27, 00:29:04,VALID,917.641,VALID,0,VALID,95.9331,VALID,0,VALID,19.5468,INVALID,360,VALID,0,
2014-08-27, 00:30:04,VALID,917.607,VALID,0,VALID,95.9788,VALID,0,VALID,19.5273,VALID,352,VALID,0,
2014-08-27, 00:31:04,VALID,917.605,VALID,0,VALID,96.0093,VALID,0,VALID,19.5288,VALID,352,VALID,0,
2014-08-27, 00:32:04,VALID,917.625,VALID,0,VALID,95.9941,VALID,0,VALID,19.5093,VALID,5,VALID,0,
2014-08-27, 00:33:04,VALID,917.649,VALID,0,VALID,95.9636,VALID,0,VALID,19.4688,VALID,5,VALID,0,
2014-08-27, 00:34:04,VALID,917.614,VALID,0,VALID,95.9864,VALID,0,VALID,19.4898,VALID,5,VALID,0,
2014-08-27, 00:35:04,VALID,917.639,VALID,0,VALID,95.9712,VALID,0,VALID,19.4493,VALID,5,VALID,0,
2014-08-27, 00:36:04,VALID,917.66,VALID,0,VALID,95.9864,VALID,0,VALID,19.4493,VALID,5,VALID,0,
2014-08-27, 00:37:04,VALID,917.638,VALID,0,VALID,96.0093,VALID,0,VALID,19.4493,VALID,5,VALID,0,
2014-08-27, 00:38:04,VALID,917.604,VALID,0,VALID,96.0017,VALID,0,VALID,19.4298,VALID,5,VALID,0,
2014-08-27, 00:39:04,VALID,917.605,VALID,0,VALID,95.9941,VALID,0,VALID,19.3908,VALID,5,VALID,0,
2014-08-27, 00:40:04,VALID,917.628,VALID,0,VALID,96.0169,VALID,0,VALID,19.4298,VALID,5,VALID,0,
2014-08-27, 00:41:04,VALID,917.62,VALID,0,VALID,96.0322,VALID,0,VALID,19.4508,VALID,5,VALID,0,
2014-08-27, 00:42:04,VALID,917.623,VALID,0,VALID,95.9864,VALID,0,VALID,19.3908,VALID,5,VALID,0,
2014-08-27, 00:43:04,VALID,917.625,VALID,0,VALID,95.9941,VALID,0,VALID,19.4103,VALID,5,VALID,0,
2014-08-27, 00:44:04,VALID,917.62,VALID,0,VALID,96.0093,VALID,0,VALID,19.4298,VALID,5,VALID,0,
2014-08-27, 00:45:04,VALID,917.617,VALID,0,VALID,96.0017,VALID,0,VALID,19.4298,VALID,5,VALID,0,
2014-08-27, 00:46:04,VALID,917.631,VALID,0,VALID,95.9712,VALID,0,VALID,19.4508,VALID,5,VALID,0,
2014-08-27, 00:47:05,VALID,917.61,VALID,0,VALID,95.9636,VALID,0,VALID,19.4688,VALID,5,VALID,0,
2014-08-27, 00:48:05,VALID,917.606,VALID,0,VALID,95.9483,VALID,0,VALID,19.4688,VALID,5,VALID,0,
2014-08-27, 00:49:05,VALID,917.589,VALID,0,VALID,95.9254,VALID,0,VALID,19.4688,VALID,5,VALID,0,
2014-08-27, 00:50:05,VALID,917.611,VALID,0,VALID,95.9407,VALID,0,VALID,19.4883,VALID,5,VALID,0,
2014-08-27, 00:51:05,VALID,917.6,VALID,0,VALID,95.9407,VALID,0,VALID,19.5078,VALID,5,VALID,0,
2014-08-27, 00:52:05,VALID,917.549,VALID,0,VALID,95.9712,VALID,0,VALID,19.5063,VALID,5,VALID,0,
2014-08-27, 00:53:05,VALID,917.539,VALID,0,VALID,95.9712,VALID,0,VALID,19.5678,VALID,5,VALID,0,
2014-08-27, 00:54:05,VALID,917.519,VALID,0,VALID,95.9941,VALID,0,VALID,19.5468,VALID,5,VALID,0,
2014-08-27, 00:55:05,VALID,917.513,VALID,0,VALID,95.9864,VALID,0,VALID,19.5663,VALID,5,VALID,0,
2014-08-27, 00:56:05,VALID,917.485,VALID,0,VALID,96.0093,VALID,0,VALID,19.5663,VALID,5,VALID,0,
2014-08-27, 00:57:05,VALID,917.473,VALID,0,VALID,95.9483,VALID,0,VALID,19.5273,VALID,5,VALID,0,
2014-08-27, 00:58:05,VALID,917.456,VALID,0,VALID,95.9712,VALID,0,VALID,19.5273,VALID,5,VALID,0,
2014-08-27, 00:59:05,VALID,917.468,VALID,0,VALID,95.9559,VALID,0,VALID,19.5078,VALID,5,VALID,0,
2014-08-27, 01:00:05,VALID,917.488,VALID,0,VALID,95.9407,VALID,0,VALID,19.4883,VALID,5,VALID,0,
2014-08-27, 01:01:05,VALID,917.455,VALID,0,VALID,95.9178,VALID,0,VALID,19.4688,VALID,15,VALID,0,
2014-08-27, 01:02:05,VALID,917.481,VALID,0,VALID,95.9178,VALID,0,VALID,19.4688,VALID,14,VALID,0,
2014-08-27, 01:03:05,VALID,917.478,VALID,0,VALID,95.9102,VALID,0,VALID,19.4493,VALID,14,VALID,0,
2014-08-27, 01:04:05,VALID,917.513,VALID,0,VALID,95.9178,VALID,0,VALID,19.4688,VALID,14,VALID,0,
2014-08-27, 01:05:05,VALID,917.505,VALID,0,VALID,95.8797,VALID,0,VALID,19.4688,VALID,357,VALID,0,
2014-08-27, 01:06:05,VALID,917.473,VALID,0,VALID,95.8873,VALID,0,VALID,19.5093,VALID,357,VALID,0,
2014-08-27, 01:07:05,VALID,917.455,VALID,0,VALID,95.8873,VALID,0,VALID,19.5093,VALID,357,VALID,0,
2014-08-27, 01:08:05,VALID,917.415,VALID,0,VALID,95.8797,VALID,0,VALID,19.5078,VALID,357,VALID,0,
2014-08-27, 01:09:05,VALID,917.418,VALID,0,VALID,95.8873,VALID,0,VALID,19.5288,VALID,357,VALID,0,
2014-08-27, 01:10:05,VALID,917.345,VALID,0,VALID,95.9407,VALID,0,VALID,19.5483,VALID,357,VALID,0,
2014-08-27, 01:11:05,VALID,917.387,VALID,0,VALID,95.9407,VALID,0,VALID,19.5678,VALID,357,VALID,0,
2014-08-27, 01:12:05,VALID,917.353,VALID,0,VALID,95.895,VALID,0,VALID,19.5288,VALID,357,VALID,0,
2014-08-27, 01:13:05,VALID,917.37,VALID,0,VALID,95.8645,VALID,0,VALID,19.5288,VALID,357,VALID,0,
2014-08-27, 01:14:05,VALID,917.325,VALID,0,VALID,95.8492,VALID,0,VALID,19.5078,VALID,357,VALID,0,
2014-08-27, 01:15:05,VALID,917.272,VALID,0,VALID,95.834,VALID,0,VALID,19.5078,VALID,357,VALID,0,
2014-08-27, 01:16:05,VALID,917.3,VALID,0,VALID,95.8797,VALID,0,VALID,19.5078,VALID,357,VALID,0,
2014-08-27, 01:17:05,VALID,917.295,VALID,0,VALID,95.8645,VALID,0,VALID,19.5093,VALID,357,VALID,0,
2014-08-27, 01:18:05,VALID,917.279,VALID,0,VALID,95.8873,VALID,0,VALID,19.5093,VALID,357,VALID,0,
2014-08-27, 01:19:05,VALID,917.283,VALID,0,VALID,95.8721,VALID,0,VALID,19.4673,VALID,344,VALID,0,
2014-08-27, 01:20:05,VALID,917.285,VALID,0,VALID,95.9102,VALID,0.107441,VALID,19.4673,VALID,335,VALID,0,
2014-08-27, 01:21:05,VALID,917.283,VALID,0,VALID,95.9102,VALID,0.107441,VALID,19.4673,VALID,335,VALID,0,
2014-08-27, 01:22:05,VALID,917.258,VALID,0,VALID,95.9102,VALID,0,VALID,19.4883,VALID,335,VALID,0,
2014-08-27, 01:23:05,VALID,917.237,VALID,0,VALID,95.9407,VALID,0.107441,VALID,19.4883,VALID,335,VALID,0,
2014-08-27, 01:24:05,VALID,917.232,VALID,0,VALID,95.9559,VALID,0,VALID,19.4868,VALID,337,VALID,0,
2014-08-27, 01:25:05,VALID,917.207,VALID,0,VALID,95.9788,VALID,0,VALID,19.4883,VALID,8,VALID,0,
2014-08-27, 01:26:05,VALID,917.183,VALID,0,VALID,95.9254,VALID,0.107441,VALID,19.4673,VALID,8,VALID,0,
2014-08-27, 01:27:05,VALID,917.175,VALID,0,VALID,95.8797,VALID,0.107441,VALID,19.4673,VALID,9,VALID,0,
2014-08-27, 01:28:05,VALID,917.117,VALID,0,VALID,95.8187,VALID,0,VALID,19.4883,VALID,16,VALID,0,
2014-08-27, 01:29:05,VALID,917.117,VALID,0,VALID,95.712,VALID,0,VALID,19.4883,VALID,6,VALID,0,
2014-08-27, 01:30:05,VALID,917.073,VALID,0,VALID,95.6586,VALID,0.107441,VALID,19.5063,VALID,335,VALID,0,
2014-08-27, 01:31:05,VALID,917.062,VALID,0,VALID,95.6281,VALID,0,VALID,19.5273,VALID,335,VALID,0,
2014-08-27, 01:32:05,VALID,917.012,VALID,0,VALID,95.6053,VALID,0,VALID,19.5273,VALID,335,VALID,0,
2014-08-27, 01:33:05,VALID,917.03,VALID,0,VALID,95.5748,VALID,0,VALID,19.5063,VALID,335,VALID,0,
2014-08-27, 01:34:05,VALID,916.984,VALID,0,VALID,95.529,VALID,0,VALID,19.5078,VALID,335,VALID,0,
2014-08-27, 01:35:05,VALID,917.016,VALID,0,VALID,95.468,VALID,0,VALID,19.5483,VALID,335,VALID,0,
2014-08-27, 01:36:05,VALID,917.013,VALID,0,VALID,95.4147,VALID,0,VALID,19.5078,VALID,335,VALID,0,
2014-08-27, 01:37:05,VALID,916.991,VALID,0,VALID,95.3537,VALID,0,VALID,19.5288,VALID,335,VALID,0,
2014-08-27, 01:38:05,VALID,916.965,VALID,0,VALID,95.2851,VALID,0,VALID,19.5078,VALID,335,VALID,0,
2014-08-27, 01:39:05,VALID,916.962,VALID,0,VALID,95.247,VALID,0,VALID,19.5273,VALID,335,VALID,0,
2014-08-27, 01:40:05,VALID,916.963,VALID,0,VALID,95.2546,VALID,0,VALID,19.5483,VALID,335,VALID,0,
2014-08-27, 01:41:05,VALID,916.962,VALID,0,VALID,95.2622,VALID,0,VALID,19.5468,VALID,335,VALID,0,
2014-08-27, 01:42:05,VALID,916.923,VALID,0,VALID,95.247,VALID,0,VALID,19.5483,VALID,335,VALID,0,
2014-08-27, 01:43:05,VALID,916.922,VALID,0,VALID,95.247,VALID,0,VALID,19.5288,VALID,335,VALID,0,
2014-08-27, 01:44:05,VALID,916.916,VALID,0,VALID,95.3384,VALID,0,VALID,19.5078,VALID,335,VALID,0,
2014-08-27, 01:45:05,VALID,916.901,VALID,0,VALID,95.4147,VALID,0,VALID,19.4883,VALID,335,VALID,0,
2014-08-27, 01:46:05,VALID,916.862,VALID,0,VALID,95.5138,VALID,0,VALID,19.4883,VALID,335,VALID,0,
2014-08-27, 01:47:05,VALID,916.845,VALID,0,VALID,95.59,VALID,0,VALID,19.4898,VALID,335,VALID,0,
2014-08-27, 01:48:05,VALID,916.809,VALID,0,VALID,95.6053,VALID,0,VALID,19.4688,VALID,337,VALID,0,
2014-08-27, 01:49:05,VALID,916.805,VALID,0,VALID,95.6357,VALID,0,VALID,19.4688,VALID,356,VALID,0,
2014-08-27, 01:50:05,VALID,916.822,VALID,0,VALID,95.5976,VALID,0,VALID,19.4493,VALID,4,VALID,0,
2014-08-27, 01:51:05,VALID,916.802,VALID,0,VALID,95.6129,VALID,0,VALID,19.4493,VALID,4,VALID,0,
2014-08-27, 01:52:05,VALID,916.802,VALID,0,VALID,95.6357,VALID,0,VALID,19.4493,VALID,4,VALID,0,
2014-08-27, 01:53:05,VALID,916.795,VALID,0,VALID,95.6815,VALID,0,VALID,19.4298,VALID,4,VALID,0,
2014-08-27, 01:54:05,VALID,916.753,VALID,0,VALID,95.6967,VALID,0,VALID,19.4298,VALID,4,VALID,0,
2014-08-27, 01:55:05,VALID,916.766,VALID,0,VALID,95.7196,VALID,0,VALID,19.4493,VALID,1,VALID,0,
2014-08-27, 01:56:05,VALID,916.746,VALID,0,VALID,95.7882,VALID,0,VALID,19.4493,VALID,1,VALID,0,
2014-08-27, 01:57:05,VALID,916.732,VALID,0,VALID,95.834,VALID,0,VALID,19.4298,VALID,1,VALID,0,
2014-08-27, 01:58:05,VALID,916.733,VALID,0,VALID,95.8797,VALID,0,VALID,19.4103,VALID,1,VALID,0,
2014-08-27, 01:59:05,VALID,916.739,VALID,0,VALID,95.9026,VALID,0,VALID,19.4298,VALID,1,VALID,0,
2014-08-27, 02:00:05,VALID,916.7,VALID,0,VALID,95.9788,VALID,0,VALID,19.4103,VALID,1,VALID,0,
2014-08-27, 02:01:05,VALID,916.695,VALID,0,VALID,96.0322,VALID,0,VALID,19.4103,VALID,1,VALID,0,
2014-08-27, 02:02:05,VALID,916.654,VALID,0,VALID,96.0627,VALID,0,VALID,19.4313,VALID,1,VALID,0,
2014-08-27, 02:03:05,VALID,916.672,VALID,0,VALID,96.0627,VALID,0,VALID,19.4103,VALID,1,VALID,0,
2014-08-27, 02:04:05,VALID,916.668,VALID,0,VALID,96.0855,VALID,0,VALID,19.3923,VALID,1,VALID,0,
2014-08-27, 02:05:05,VALID,916.676,VALID,0,VALID,96.0932,VALID,0,VALID,19.3923,VALID,1,VALID,0,
2014-08-27, 02:06:05,VALID,916.643,VALID,0,VALID,96.1313,VALID,0,VALID,19.3713,VALID,1,VALID,0,
2014-08-27, 02:07:05,VALID,916.621,VALID,0,VALID,96.1541,VALID,0,VALID,19.3908,VALID,1,VALID,0,
2014-08-27, 02:08:05,VALID,916.616,VALID,0,VALID,96.177,VALID,0,VALID,19.3908,VALID,1,VALID,0,
2014-08-27, 02:09:05,VALID,916.612,VALID,0,VALID,96.1846,VALID,0,VALID,19.3908,VALID,1,VALID,0,
2014-08-27, 02:10:05,VALID,916.561,VALID,0,VALID,96.177,VALID,0,VALID,19.4103,VALID,1,VALID,0,
2014-08-27, 02:11:05,VALID,916.524,VALID,0,VALID,96.1923,VALID,0,VALID,19.4298,VALID,1,VALID,0,
2014-08-27, 02:12:05,VALID,916.551,VALID,0,VALID,96.1618,VALID,0,VALID,19.4298,VALID,1,VALID,0,
2014-08-27, 02:13:05,VALID,916.53,VALID,0,VALID,96.116,VALID,0,VALID,19.4298,VALID,1,VALID,0,
2014-08-27, 02:14:05,VALID,916.497,VALID,0,VALID,96.0932,VALID,0,VALID,19.4103,VALID,1,VALID,0,
2014-08-27, 02:15:05,VALID,916.491,VALID,0,VALID,96.0627,VALID,0,VALID,19.4313,VALID,1,VALID,0,
2014-08-27, 02:16:05,VALID,916.448,VALID,0,VALID,96.0322,VALID,0,VALID,19.4103,VALID,1,VALID,0,
2014-08-27, 02:17:05,VALID,916.462,VALID,0,VALID,96.0017,VALID,0,VALID,19.4103,VALID,1,VALID,0,
2014-08-27, 02:18:05,VALID,916.477,VALID,0,VALID,95.9941,VALID,0,VALID,19.4298,VALID,1,VALID,0,
2014-08-27, 02:19:05,VALID,916.422,VALID,0,VALID,95.9636,VALID,0,VALID,19.4508,VALID,1,VALID,0,
2014-08-27, 02:20:05,VALID,916.423,VALID,0,VALID,95.9407,VALID,0,VALID,19.4313,VALID,1,VALID,0,
2014-08-27, 02:21:05,VALID,916.402,VALID,0,VALID,95.9026,VALID,0,VALID,19.3713,VALID,1,VALID,0,
2014-08-27, 02:22:05,VALID,916.377,VALID,0,VALID,95.8797,VALID,0,VALID,19.3713,VALID,1,VALID,0,
2014-08-27, 02:23:05,VALID,916.377,VALID,0,VALID,95.8568,VALID,0,VALID,19.3923,VALID,1,VALID,0,
2014-08-27, 02:24:05,VALID,916.406,VALID,0,VALID,95.8873,VALID,0,VALID,19.3713,VALID,1,VALID,0,
2014-08-27, 02:25:05,VALID,916.386,VALID,0,VALID,95.8645,VALID,0,VALID,19.3713,VALID,1,VALID,0,
2014-08-27, 02:26:05,VALID,916.359,VALID,0,VALID,95.8645,VALID,0,VALID,19.3728,VALID,1,VALID,0,
2014-08-27, 02:27:05,VALID,916.364,VALID,0,VALID,95.8492,VALID,0,VALID,19.3323,VALID,1,VALID,0,
2014-08-27, 02:28:05,VALID,916.377,VALID,0,VALID,95.8721,VALID,0,VALID,19.3518,VALID,1,VALID,0,
2014-08-27, 02:29:05,VALID,916.348,VALID,0,VALID,95.8645,VALID,0,VALID,19.3518,VALID,1,VALID,0,
2014-08-27, 02:30:05,VALID,916.302,VALID,0,VALID,95.8568,VALID,0,VALID,19.3323,VALID,1,VALID,0,
2014-08-27, 02:31:05,VALID,916.313,VALID,0,VALID,95.8492,VALID,0,VALID,19.3338,VALID,1,VALID,0,
2014-08-27, 02:32:05,VALID,916.288,VALID,0,VALID,95.8492,VALID,0,VALID,19.3338,VALID,1,VALID,0,
2014-08-27, 02:33:05,VALID,916.279,VALID,0,VALID,95.8416,VALID,0,VALID,19.3143,VALID,1,VALID,0,
2014-08-27, 02:34:05,VALID,916.273,VALID,0,VALID,95.8797,VALID,0,VALID,19.2933,VALID,1,VALID,0,
2014-08-27, 02:35:05,VALID,916.256,VALID,0,VALID,95.8873,VALID,0,VALID,19.2933,VALID,1,VALID,0,
2014-08-27, 06:56:04,INVALID - VALUE NOT AVAILABLE,0,INVALID - VALUE NOT AVAILABLE,0,INVALID - VALUE NOT AVAILABLE,0,INVALID - VALUE NOT AVAILABLE,0,INVALID - VALUE NOT AVAILABLE,0,INVALID,360,INVALID,0,
2014-08-27, 07:11:04,VALID,916.734,VALID,0,VALID,97.351,VALID,91.6473,VALID,18.7308,VALID,125,VALID,0,
2014-08-27, 07:12:04,VALID,916.756,VALID,0,VALID,97.3358,VALID,97.8789,VALID,18.7878,VALID,125,VALID,0,
2014-08-27, 07:13:04,VALID,916.754,VALID,0,VALID,97.3129,VALID,103.681,VALID,18.9048,VALID,125,VALID,0,
2014-08-27, 07:14:04,VALID,916.778,VALID,0,VALID,97.3053,VALID,108.945,VALID,18.9633,VALID,125,VALID,0,
2014-08-27, 07:15:04,VALID,916.789,VALID,0,VALID,97.3053,VALID,116.681,VALID,19.0608,VALID,125,VALID,0,
2014-08-27, 07:16:04,VALID,916.81,VALID,0,VALID,97.2672,VALID,122.698,VALID,19.1388,VALID,125,VALID,0,
2014-08-27, 07:17:04,VALID,916.806,VALID,0,VALID,97.2519,VALID,128.929,VALID,19.2363,VALID,125,VALID,0,
2014-08-27, 07:18:04,VALID,916.825,VALID,0,VALID,97.1986,VALID,134.731,VALID,19.3143,VALID,116,VALID,0,
2014-08-27, 07:19:04,VALID,916.821,VALID,0,VALID,97.1681,VALID,141.5,VALID,19.4508,VALID,117,VALID,0,
2014-08-27, 07:20:04,VALID,916.828,VALID,0,VALID,97.1299,VALID,148.913,VALID,19.5678,VALID,117,VALID,0,
2014-08-27, 07:21:04,VALID,916.829,VALID,0,VALID,97.069,VALID,155.36,VALID,19.6458,VALID,117,VALID,0,
2014-08-27, 07:22:04,VALID,916.829,VALID,0,VALID,96.9775,VALID,159.658,VALID,19.7628,VALID,117,VALID,0,
2014-08-27, 07:23:04,VALID,916.845,VALID,0,VALID,96.9089,VALID,161.054,VALID,19.8993,VALID,116,VALID,0,
2014-08-27, 07:24:04,VALID,916.844,VALID,0,VALID,96.825,VALID,163.848,VALID,20.0148,VALID,117,VALID,0,
2014-08-27, 07:25:04,VALID,916.861,VALID,0,VALID,96.6725,VALID,165.997,VALID,20.0749,VALID,116,VALID,0,
2014-08-27, 07:26:04,VALID,916.828,VALID,0,VALID,96.3981,VALID,167.501,VALID,20.0538,VALID,117,VALID,0,
2014-08-27, 07:27:04,VALID,916.815,VALID,0,VALID,96.0169,VALID,166.964,VALID,20.0148,VALID,117,VALID,0,
2014-08-27, 07:28:04,VALID,916.828,VALID,0,VALID,95.6129,VALID,170.294,VALID,19.9953,VALID,117,VALID,0,
2014-08-27, 07:29:04,VALID,916.833,VALID,0,VALID,95.2546,VALID,176.418,VALID,20.0749,VALID,117,VALID,0,
2014-08-27, 07:30:04,VALID,916.882,VALID,0,VALID,94.8658,VALID,177.493,VALID,20.1919,VALID,117,VALID,0,
2014-08-27, 07:31:04,VALID,916.889,VALID,0,VALID,93.2191,VALID,174.055,VALID,20.2098,VALID,117,VALID,0,
2014-08-27, 07:32:04,VALID,916.88,VALID,0,VALID,92.4492,VALID,173.517,VALID,20.2489,VALID,117,VALID,0,
2014-08-27, 07:33:04,VALID,916.931,VALID,0,VALID,91.1151,VALID,171.046,VALID,20.2684,VALID,117,VALID,0,
2014-08-27, 07:34:04,VALID,916.919,VALID,0,VALID,90.2308,VALID,162.451,VALID,20.1888,VALID,116,VALID,0,
2014-08-27, 07:35:04,VALID,916.932,VALID,0,VALID,90.4747,VALID,147.409,VALID,20.2489,VALID,117,VALID,0,
2014-08-27, 07:36:04,VALID,916.924,VALID,0,VALID,90.4137,VALID,135.268,VALID,20.3659,VALID,116,VALID,0,
2014-08-27, 07:37:04,VALID,916.957,VALID,0,VALID,89.8038,VALID,136.45,VALID,20.3854,VALID,116,VALID,0,
2014-08-27, 07:38:04,VALID,916.942,VALID,0,VALID,89.4989,VALID,152.244,VALID,20.3838,VALID,112,VALID,0,
2014-08-27, 07:39:04,VALID,916.962,VALID,0,VALID,89.0949,VALID,168.038,VALID,20.4423,VALID,112,VALID,0,
2014-08-27, 07:40:04,VALID,916.956,VALID,0,VALID,88.7213,VALID,174.807,VALID,20.5024,VALID,112,VALID,0,
2014-08-27, 07:41:04,VALID,916.948,VALID,0,VALID,89.0339,VALID,181.683,VALID,20.5594,VALID,112,VALID,0,
2014-08-27, 07:42:04,VALID,916.944,VALID,0,VALID,88.5765,VALID,178.352,VALID,20.717,VALID,112,VALID,0,
2014-08-27, 07:43:04,VALID,916.95,VALID,0,VALID,87.9132,VALID,187.162,VALID,20.8324,VALID,112,VALID,0,
2014-08-27, 07:44:04,VALID,916.968,VALID,0,VALID,87.7608,VALID,191.353,VALID,20.969,VALID,112,VALID,0,
2014-08-27, 07:45:04,VALID,916.927,VALID,0,VALID,87.4406,VALID,197.692,VALID,21.125,VALID,112,VALID,0,
2014-08-27, 07:46:04,VALID,916.941,VALID,0,VALID,86.2894,VALID,199.411,VALID,21.2437,VALID,112,VALID,0,
2014-08-27, 07:47:04,VALID,916.963,VALID,0,VALID,86.7392,VALID,203.386,VALID,21.2632,VALID,112,VALID,0,
2014-08-27, 07:48:04,VALID,917.001,VALID,0,VALID,85.306,VALID,209.188,VALID,21.3022,VALID,112,VALID,0,
2014-08-27, 07:49:04,VALID,916.986,VALID,0,VALID,84.7495,VALID,208.651,VALID,21.2632,VALID,50,VALID,0,
2014-08-27, 07:50:04,VALID,916.996,VALID,0,VALID,84.1701,VALID,216.709,VALID,21.2437,VALID,47,VALID,0,
2014-08-27, 07:51:04,VALID,917.029,VALID,0,VALID,85.9845,VALID,223.048,VALID,21.2437,VALID,48,VALID,0,
2014-08-27, 07:52:04,VALID,917.02,VALID,0,VALID,84.6733,VALID,233.47,VALID,21.2632,VALID,48,VALID,0,
2014-08-27, 07:53:04,VALID,917.032,VALID,0,VALID,85.1078,VALID,234.544,VALID,21.3006,VALID,48,VALID,0,
2014-08-27, 07:54:04,VALID,917.092,VALID,0,VALID,83.6746,VALID,245.181,VALID,21.3998,VALID,48,VALID,0,
2014-08-27, 07:55:04,VALID,917.077,VALID,0,VALID,83.1181,VALID,252.272,VALID,21.4388,VALID,48,VALID,0,
2014-08-27, 07:56:04,VALID,917.115,VALID,0,VALID,83.3239,VALID,253.561,VALID,21.5168,VALID,48,VALID,0,
2014-08-27, 07:57:04,VALID,917.107,VALID,0,VALID,83.0266,VALID,257.966,VALID,21.5542,VALID,48,VALID,0,
2014-08-27, 07:58:04,VALID,917.149,VALID,0,VALID,83.3011,VALID,258.289,VALID,21.7315,VALID,48,VALID,0,
2014-08-27, 07:59:04,VALID,917.176,VALID,0,VALID,79.6342,VALID,271.504,VALID,21.9266,VALID,48,VALID,0,
2014-08-27, 08:00:04,VALID,917.175,VALID,0,VALID,80.6024,VALID,273.545,VALID,22.1005,VALID,48,VALID,0,
2014-08-27, 08:01:04,VALID,917.169,VALID,0,VALID,80.5338,VALID,271.289,VALID,22.2957,VALID,48,VALID,0,
2014-08-27, 08:02:04,VALID,917.187,VALID,0,VALID,78.3916,VALID,273.975,VALID,22.4518,VALID,48,VALID,0,
2014-08-27, 08:03:04,VALID,917.238,VALID,0,VALID,78.1629,VALID,284.719,VALID,22.6274,VALID,48,VALID,0,
2014-08-27, 08:04:04,VALID,917.246,VALID,0,VALID,75.9521,VALID,288.587,VALID,22.8031,VALID,48,VALID,0,
2014-08-27, 08:05:04,VALID,917.286,VALID,0,VALID,76.44,VALID,296.538,VALID,22.8421,VALID,48,VALID,0,
2014-08-27, 08:06:04,VALID,917.262,VALID,0,VALID,77.9418,VALID,300.191,VALID,22.9202,VALID,48,VALID,0,
2014-08-27, 08:07:04,VALID,917.296,VALID,0,VALID,78.1934,VALID,301.695,VALID,23.0373,VALID,48,VALID,0,
2014-08-27, 08:08:04,VALID,917.265,VALID,0,VALID,76.4781,VALID,305.563,VALID,23.2325,VALID,48,VALID,0,
2014-08-27, 08:09:04,VALID,917.31,VALID,0,VALID,76.1503,VALID,311.579,VALID,23.2502,VALID,48,VALID,0,
2014-08-27, 08:10:04,VALID,917.34,VALID,0,VALID,75.5252,VALID,313.298,VALID,23.2502,VALID,24,VALID,0.28125,
2014-08-27, 08:11:04,VALID,917.366,VALID,0,VALID,73.7337,VALID,325.332,VALID,23.2325,VALID,18,VALID,0,
2014-08-27, 08:12:04,VALID,917.385,VALID,0,VALID,77.492,VALID,339.621,VALID,23.1917,VALID,345,VALID,0,
2014-08-27, 08:13:04,VALID,917.392,VALID,0,VALID,76.8517,VALID,348.324,VALID,23.1331,VALID,326,VALID,0,
2014-08-27, 08:14:04,VALID,917.422,VALID,0,VALID,75.5633,VALID,350.473,VALID,22.9965,VALID,326,VALID,0,
2014-08-27, 08:15:04,VALID,917.426,VALID,0,VALID,76.7678,VALID,360.143,VALID,22.6647,VALID,279,VALID,0,
2014-08-27, 08:16:04,VALID,917.456,VALID,0,VALID,77.5683,VALID,364.118,VALID,22.4696,VALID,279,VALID,0,
2014-08-27, 08:17:04,VALID,917.446,VALID,0,VALID,76.1884,VALID,362.614,VALID,22.5086,VALID,320,VALID,0,
2014-08-27, 08:18:04,VALID,917.477,VALID,0,VALID,77.3243,VALID,370.35,VALID,22.5655,VALID,321,VALID,0,
2014-08-27, 08:19:04,VALID,917.514,VALID,0,VALID,76.7068,VALID,379.267,VALID,22.7818,VALID,40,VALID,0.0101562,
2014-08-27, 08:20:04,VALID,917.518,VALID,0,VALID,73.9853,VALID,380.771,VALID,22.8404,VALID,41,VALID,0.407031,
2014-08-27, 08:21:04,VALID,917.565,VALID,0,VALID,74.679,VALID,392.59,VALID,22.8616,VALID,37,VALID,0.119141,
2014-08-27, 08:22:04,VALID,917.573,VALID,0,VALID,76.0055,VALID,394.846,VALID,22.9592,VALID,356,VALID,0,
2014-08-27, 08:23:04,VALID,917.624,VALID,0,VALID,74.0844,VALID,389.367,VALID,23.1527,VALID,6,VALID,0,
2014-08-27, 08:24:04,VALID,917.639,VALID,0,VALID,73.5736,VALID,405.375,VALID,23.4472,VALID,340,VALID,0.0890625,
2014-08-27, 08:25:04,VALID,917.629,VALID,0,VALID,72.0946,VALID,409.673,VALID,23.6016,VALID,40,VALID,0,
2014-08-27, 08:26:04,VALID,917.678,VALID,0,VALID,72.148,VALID,418.376,VALID,23.7187,VALID,34,VALID,0,
2014-08-27, 08:27:04,VALID,917.678,VALID,0,VALID,70.3946,VALID,428.905,VALID,23.8554,VALID,337,VALID,0.0199219,
2014-08-27, 08:28:04,VALID,917.711,VALID,0,VALID,68.809,VALID,447.17,VALID,23.8145,VALID,20,VALID,0.415625,
2014-08-27, 08:29:04,VALID,917.726,VALID,0,VALID,69.9982,VALID,458.989,VALID,23.6974,VALID,20,VALID,0,